Regional Weather Roundup
Issued by NWS

Home | Current Version | Previous Version | Text Only | Print | Product List | Glossary Off
Versions: 1 2 3 4 5 6 7 8 9 10 11 12 13 14 15 16 17 18 19 20 21 22 23 24 25 26 27 28 29 30 31 32 33 34 35 36 37 38 39 40 41 42 43 44 45 46 47 48 49 50

000
ASUS43 KLMK 311302
RWRKY
KENTUCKY REGIONAL WEATHER ROUNDUP
NATIONAL WEATHER SERVICE LOUISVILLE KY
900 AM EDT THU JUL 31 2014

NOTE "FAIR" INDICATES FEW OR NO CLOUDS BELOW 12,000 FEET
WITH NO SIGNIFICANT WEATHER AND/OR OBSTRUCTIONS TO VISIBILITY.

KYZ001>023-026-027-061>063-070>075-311400-
WESTERN AND SOUTH CENTRAL KENTUCKY

CITY           SKY/WX    TMP DP  RH WIND       PRES   REMARKS
PADUCAH        SUNNY     71  63  75 CALM      30.10R
HENDERSON      SUNNY     66  61  82 CALM      30.10R
OWENSBORO      SUNNY     66  62  87 CALM      30.11R
HOPKINSVILLE   MOSUNNY   67  62  85 E2        30.11R
BOWLING GREEN  SUNNY     66  59  78 CALM      30.12R
GLASGOW        MOSUNNY   65  59  83 CALM      30.12R
$$

KYZ024-025-028>034-038-045-046-053-311400-
NORTH CENTRAL KENTUCKY

CITY           SKY/WX    TMP DP  RH WIND       PRES   REMARKS
LOUISVILLE/SDF MOSUNNY   70  62  76 SW3       30.10R
LOUISVILLE/LOU SUNNY     69  62  78 SW3       30.10S
FORT KNOX      SUNNY     66  62  87 CALM      30.10R
$$

KYZ035>037-039>044-047>052-055>060-089>105-311400-
NORTHEAST KENTUCKY

CITY           SKY/WX    TMP DP  RH WIND       PRES   REMARKS
LEXINGTON      SUNNY     68  60  75 CALM      30.12S
COVINGTON      SUNNY     69  61  75 W5        30.10R
FRANKFORT      SUNNY     66  62  87 CALM      30.11R
$$

KYZ054-064>069-076>088-106>120-311400-
SOUTHEAST KENTUCKY

CITY           SKY/WX    TMP DP  RH WIND       PRES   REMARKS
JACKSON        SUNNY     64  59  83 CALM      30.15R
LONDON         MOSUNNY   64  60  87 CALM      30.14S
SOMERSET       MOSUNNY   61  61 100 CALM      30.14S
MIDDLESBORO    FOG       58  58 100 CALM      30.16S VSB 3/4
MONTICELLO     PTSUNNY   63  61  93 CALM      30.15R
$$



USA.gov is the U.S. government's official web portal to all federal, state and local government web resources and services.